Location: Unspecified
(47.0997°N, 0.0000°E)
Time: 05:50:43
(UTC+00:00)

Envisat - Visible Passes

Search period start: 04 April 2026 00:00
Search period end: 14 April 2026 00:00
Orbit: 761 x 763 km, 98.4° (Epoch: 29 March)

Date Brightness Start Highest point End Pass type
(mag) Time Alt. Az. Time Alt. Az. Time Alt. Az.
4 Apr 4.8 01:43:07 10° NE 01:47:11 24° E 01:47:12 24° E visible
4 Apr 3.3 03:21:29 10° N 03:26:22 49° WNW 03:27:20 43° WSW visible
5 Apr 5.6 01:07:40 10° ENE 01:08:54 11° E 01:09:04 11° E visible
5 Apr 2.9 02:43:32 10° NNE 02:48:38 80° ESE 02:49:11 70° SSE visible
5 Apr 4.7 04:23:48 10° NNW 04:26:56 17° WNW 04:29:20 12° W visible
6 Apr 4.0 02:05:59 10° NNE 02:10:42 37° E 02:11:03 37° ESE visible
6 Apr 3.9 03:45:05 10° N 03:49:32 32° WNW 03:51:12 26° W visible
7 Apr 5.1 01:29:07 10° NE 01:32:33 18° E 01:32:55 18° E visible
7 Apr 3.0 03:06:54 10° N 03:11:56 65° WNW 03:13:03 50° SW visible
7 Apr 5.0 04:48:36 10° NW 04:49:54 11° NW 04:51:11 10° WNW visible
8 Apr 3.3 02:29:06 10° NNE 02:34:08 60° E 02:34:54 53° SE visible
8 Apr 4.4 04:08:53 10° NNW 04:12:38 21° WNW 04:15:02 15° W visible
9 Apr 4.5 01:51:45 10° NE 01:56:06 28° E 01:56:46 27° ESE visible
9 Apr 3.5 03:30:25 10° N 03:35:09 41° WNW 03:36:54 31° WSW visible
10 Apr 5.4 01:15:28 10° ENE 01:17:52 13° E 01:18:37 13° E visible
10 Apr 2.9 02:52:22 10° NNE 02:57:28 86° WNW 02:58:45 52° SSW visible
10 Apr 4.9 04:33:02 10° NNW 04:35:38 14° NW 04:38:15 10° W visible
11 Apr 3.8 02:14:43 10° NNE 02:19:35 45° E 02:20:36 40° SE visible
11 Apr 4.1 03:54:04 10° N 03:58:18 27° WNW 04:00:44 19° WSW visible
12 Apr 4.8 01:37:37 10° NE 01:41:30 21° E 01:42:27 20° ESE visible
12 Apr 3.2 03:15:47 10° N 03:20:44 54° WNW 03:22:35 35° SW visible
13 Apr 3.1 02:37:53 10° NNE 02:42:59 72° ESE 02:44:26 46° S visible
13 Apr 4.6 04:17:59 10° NNW 04:21:21 18° WNW 04:24:34 11° W visible
